Time,TemperatureF,DewpointF,PressureIn,WindDirection,WindDirectionDegrees,WindSpeedMPH,WindSpeedGustMPH,Humidity,HourlyPrecipIn,Conditions,Clouds,dailyrainin,SolarRadiationWatts/m^2,SoftwareType,DateUTC
2013-07-28 00:12:00,53.0,49.0,-100.00,West,279,1.0,3.0,85,0.00,,,0.00,0.000000,,2013-07-28 05:12:00,
2013-07-28 00:22:00,53.0,49.0,-100.00,West,279,1.0,3.0,85,0.00,,,0.00,0.000000,,2013-07-28 05:22:00,
2013-07-28 00:32:00,53.0,49.0,-100.00,West,279,1.0,3.0,85,0.00,,,0.00,0.000000,,2013-07-28 05:32:00,
2013-07-28 00:43:00,53.0,49.0,-100.00,West,279,1.0,3.0,85,0.00,,,0.00,0.000000,,2013-07-28 05:43:00,
2013-07-28 01:12:00,54.0,48.0,-100.00,WNW,285,2.0,4.0,80,0.00,,,0.00,0.000000,,2013-07-28 06:12:00,
2013-07-28 01:22:00,54.0,48.0,-100.00,WNW,285,2.0,4.0,80,0.00,,,0.00,0.000000,,2013-07-28 06:22:00,
2013-07-28 01:32:00,54.0,48.0,-100.00,WNW,285,2.0,4.0,80,0.00,,,0.00,0.000000,,2013-07-28 06:32:00,
2013-07-28 01:43:00,54.0,48.0,-100.00,WNW,285,2.0,4.0,80,0.00,,,0.00,0.000000,,2013-07-28 06:43:00,
2013-07-28 02:12:00,52.0,49.0,-100.00,SW,231,1.0,2.0,90,0.00,,,0.00,0.000000,,2013-07-28 07:12:00,
2013-07-28 02:22:00,52.0,49.0,-100.00,SW,231,1.0,2.0,90,0.00,,,0.00,0.000000,,2013-07-28 07:22:00,
2013-07-28 02:32:00,52.0,49.0,-100.00,SW,231,1.0,2.0,90,0.00,,,0.00,0.000000,,2013-07-28 07:32:00,
2013-07-28 02:43:00,52.0,49.0,-100.00,SW,231,1.0,2.0,90,0.00,,,0.00,0.000000,,2013-07-28 07:43:00,
2013-07-28 03:12:00,51.0,50.0,-100.00,West,273,0.0,3.0,95,0.00,,,0.00,0.000000,,2013-07-28 08:12:00,
2013-07-28 03:22:00,51.0,50.0,-100.00,West,273,0.0,3.0,95,0.00,,,0.00,0.000000,,2013-07-28 08:22:00,
2013-07-28 03:33:00,51.0,50.0,-100.00,West,273,0.0,3.0,95,0.00,,,0.00,0.000000,,2013-07-28 08:33:00,
2013-07-28 03:42:00,51.0,50.0,-100.00,West,273,0.0,3.0,95,0.00,,,0.00,0.000000,,2013-07-28 08:42:00,
2013-07-28 04:12:00,48.0,47.0,-100.00,NNE,33,0.0,4.0,96,0.00,,,0.00,0.000000,,2013-07-28 09:12:00,
2013-07-28 04:22:00,48.0,47.0,-100.00,NNE,33,0.0,4.0,96,0.00,,,0.00,0.000000,,2013-07-28 09:22:00,
2013-07-28 04:32:00,48.0,47.0,-100.00,NNE,33,0.0,4.0,96,0.00,,,0.00,0.000000,,2013-07-28 09:32:00,
2013-07-28 04:43:00,48.0,47.0,-100.00,NNE,33,0.0,4.0,96,0.00,,,0.00,0.000000,,2013-07-28 09:43:00,
2013-07-28 05:12:00,46.0,45.0,-100.00,WSW,240,3.0,4.0,97,0.00,,,0.00,0.000000,,2013-07-28 10:12:00,
2013-07-28 05:22:00,46.0,45.0,-100.00,WSW,240,3.0,4.0,97,0.00,,,0.00,0.000000,,2013-07-28 10:22:00,
2013-07-28 05:32:00,46.0,45.0,-100.00,WSW,240,3.0,4.0,97,0.00,,,0.00,0.000000,,2013-07-28 10:32:00,
2013-07-28 05:42:00,46.0,45.0,-100.00,WSW,240,3.0,4.0,97,0.00,,,0.00,0.000000,,2013-07-28 10:42:00,
2013-07-28 06:12:00,46.0,45.0,-100.00,NE,42,0.0,4.0,97,0.00,,,0.00,0.000000,,2013-07-28 11:12:00,
2013-07-28 06:22:00,46.0,45.0,-100.00,NE,42,0.0,4.0,97,0.00,,,0.00,0.000000,,2013-07-28 11:22:00,
2013-07-28 06:33:00,46.0,45.0,-100.00,NE,42,0.0,4.0,97,0.00,,,0.00,0.000000,,2013-07-28 11:33:00,
2013-07-28 06:43:00,46.0,45.0,-100.00,NE,42,0.0,4.0,97,0.00,,,0.00,0.000000,,2013-07-28 11:43:00,
2013-07-28 07:12:00,46.0,46.0,-100.00,West,275,0.0,2.0,99,0.00,,,0.00,7.000000,,2013-07-28 12:12:00,
2013-07-28 07:22:00,46.0,46.0,-100.00,West,275,0.0,2.0,99,0.00,,,0.00,7.000000,,2013-07-28 12:22:00,
2013-07-28 07:33:00,46.0,46.0,-100.00,West,275,0.0,2.0,99,0.00,,,0.00,7.000000,,2013-07-28 12:33:00,
2013-07-28 07:43:00,46.0,46.0,-100.00,West,275,0.0,2.0,99,0.00,,,0.00,7.000000,,2013-07-28 12:43:00,
2013-07-28 08:12:00,54.0,50.0,-100.00,NW,312,0.0,2.0,87,0.00,,,0.00,89.000000,,2013-07-28 13:12:00,
2013-07-28 08:22:00,54.0,50.0,-100.00,NW,312,0.0,2.0,87,0.00,,,0.00,89.000000,,2013-07-28 13:22:00,
2013-07-28 08:32:00,54.0,50.0,-100.00,NW,312,0.0,2.0,87,0.00,,,0.00,89.000000,,2013-07-28 13:32:00,
2013-07-28 08:43:00,54.0,50.0,-100.00,NW,312,0.0,2.0,87,0.00,,,0.00,89.000000,,2013-07-28 13:43:00,
2013-07-28 09:12:00,59.0,51.0,-100.00,North,11,3.0,7.0,74,0.00,,,0.00,289.000000,,2013-07-28 14:12:00,
2013-07-28 09:23:00,59.0,51.0,-100.00,North,11,3.0,7.0,74,0.00,,,0.00,289.000000,,2013-07-28 14:23:00,
2013-07-28 09:33:00,59.0,51.0,-100.00,North,11,3.0,7.0,74,0.00,,,0.00,289.000000,,2013-07-28 14:33:00,
2013-07-28 09:43:00,59.0,51.0,-100.00,North,11,3.0,7.0,74,0.00,,,0.00,289.000000,,2013-07-28 14:43:00,
2013-07-28 10:13:00,66.0,51.0,-100.00,NNW,330,2.0,6.0,59,0.00,,,0.00,502.000000,,2013-07-28 15:13:00,
2013-07-28 10:22:00,66.0,51.0,-100.00,NNW,330,2.0,6.0,59,0.00,,,0.00,502.000000,,2013-07-28 15:22:00,
2013-07-28 10:32:00,66.0,51.0,-100.00,NNW,330,2.0,6.0,59,0.00,,,0.00,502.000000,,2013-07-28 15:32:00,
2013-07-28 10:43:00,66.0,51.0,-100.00,NNW,330,2.0,6.0,59,0.00,,,0.00,502.000000,,2013-07-28 15:43:00,
2013-07-28 11:12:00,70.0,50.0,-100.00,NNE,30,2.0,10.0,49,0.00,,,0.00,699.000000,,2013-07-28 16:12:00,
2013-07-28 11:22:00,70.0,50.0,-100.00,NNE,30,2.0,10.0,49,0.00,,,0.00,699.000000,,2013-07-28 16:22:00,
2013-07-28 11:33:00,70.0,50.0,-100.00,NNE,30,2.0,10.0,49,0.00,,,0.00,699.000000,,2013-07-28 16:33:00,
2013-07-28 11:43:00,70.0,50.0,-100.00,NNE,30,2.0,10.0,49,0.00,,,0.00,699.000000,,2013-07-28 16:43:00,
2013-07-28 12:12:00,72.0,46.0,-100.00,West,268,5.0,10.0,39,0.00,,,0.00,858.000000,,2013-07-28 17:12:00,
2013-07-28 12:22:00,72.0,46.0,-100.00,West,268,5.0,10.0,39,0.00,,,0.00,858.000000,,2013-07-28 17:22:00,
2013-07-28 12:32:00,72.0,46.0,-100.00,West,268,5.0,10.0,39,0.00,,,0.00,858.000000,,2013-07-28 17:32:00,
2013-07-28 12:43:00,72.0,46.0,-100.00,West,268,5.0,10.0,39,0.00,,,0.00,858.000000,,2013-07-28 17:43:00,
2013-07-28 13:12:00,74.0,46.0,-100.00,WNW,292,2.0,9.0,37,0.00,,,0.00,1007.000000,,2013-07-28 18:12:00,
2013-07-28 13:22:00,74.0,46.0,-100.00,WNW,292,2.0,9.0,37,0.00,,,0.00,1007.000000,,2013-07-28 18:22:00,
2013-07-28 13:33:00,74.0,46.0,-100.00,WNW,292,2.0,9.0,37,0.00,,,0.00,1007.000000,,2013-07-28 18:33:00,
2013-07-28 13:43:00,74.0,46.0,-100.00,WNW,292,2.0,9.0,37,0.00,,,0.00,1007.000000,,2013-07-28 18:43:00,
2013-07-28 14:12:00,76.0,46.0,-100.00,NW,323,4.0,10.0,35,0.00,,,0.00,1016.000000,,2013-07-28 19:12:00,
2013-07-28 14:22:00,76.0,46.0,-100.00,NW,323,4.0,10.0,35,0.00,,,0.00,1016.000000,,2013-07-28 19:22:00,
2013-07-28 14:33:00,76.0,46.0,-100.00,NW,323,4.0,10.0,35,0.00,,,0.00,1016.000000,,2013-07-28 19:33:00,
2013-07-28 14:43:00,76.0,46.0,-100.00,NW,323,4.0,10.0,35,0.00,,,0.00,1016.000000,,2013-07-28 19:43:00,
2013-07-28 15:13:00,77.0,46.0,-100.00,NNW,348,4.0,9.0,34,0.00,,,0.00,1064.000000,,2013-07-28 20:13:00,
2013-07-28 15:23:00,77.0,46.0,-100.00,NNW,348,4.0,9.0,34,0.00,,,0.00,1064.000000,,2013-07-28 20:23:00,
2013-07-28 15:33:00,77.0,46.0,-100.00,NNW,348,4.0,9.0,34,0.00,,,0.00,1064.000000,,2013-07-28 20:33:00,
2013-07-28 15:43:00,77.0,46.0,-100.00,NNW,348,4.0,9.0,34,0.00,,,0.00,1064.000000,,2013-07-28 20:43:00,
2013-07-28 16:12:00,78.0,47.0,-100.00,ESE,115,3.0,9.0,34,0.00,,,0.00,1020.000000,,2013-07-28 21:12:00,
2013-07-28 16:22:00,78.0,47.0,-100.00,ESE,115,3.0,9.0,34,0.00,,,0.00,1020.000000,,2013-07-28 21:22:00,
2013-07-28 16:33:00,78.0,47.0,-100.00,ESE,115,3.0,9.0,34,0.00,,,0.00,1020.000000,,2013-07-28 21:33:00,
2013-07-28 16:44:00,78.0,47.0,-100.00,ESE,115,3.0,9.0,34,0.00,,,0.00,1020.000000,,2013-07-28 21:44:00,
2013-07-28 17:12:00,79.0,48.0,-100.00,South,180,2.0,9.0,34,0.00,,,0.00,881.000000,,2013-07-28 22:12:00,
2013-07-28 17:22:00,79.0,48.0,-100.00,South,180,2.0,9.0,34,0.00,,,0.00,881.000000,,2013-07-28 22:22:00,
2013-07-28 17:32:00,79.0,48.0,-100.00,South,180,2.0,9.0,34,0.00,,,0.00,881.000000,,2013-07-28 22:32:00,
2013-07-28 17:43:00,79.0,48.0,-100.00,South,180,2.0,9.0,34,0.00,,,0.00,881.000000,,2013-07-28 22:43:00,
2013-07-28 18:12:00,78.0,49.0,-100.00,East,79,4.0,10.0,36,0.00,,,0.00,712.000000,,2013-07-28 23:12:00,
2013-07-28 18:22:00,78.0,49.0,-100.00,East,79,4.0,10.0,36,0.00,,,0.00,712.000000,,2013-07-28 23:22:00,
2013-07-28 18:32:00,78.0,49.0,-100.00,East,79,4.0,10.0,36,0.00,,,0.00,712.000000,,2013-07-28 23:32:00,
2013-07-28 18:43:00,78.0,49.0,-100.00,East,79,4.0,10.0,36,0.00,,,0.00,712.000000,,2013-07-28 23:43:00,
2013-07-28 19:12:00,79.0,49.0,-100.00,ENE,66,1.0,7.0,35,0.00,,,0.00,500.000000,,2013-07-29 00:12:00,
2013-07-28 19:22:00,79.0,49.0,-100.00,ENE,66,1.0,7.0,35,0.00,,,0.00,500.000000,,2013-07-29 00:22:00,
2013-07-28 19:32:00,79.0,49.0,-100.00,ENE,66,1.0,7.0,35,0.00,,,0.00,500.000000,,2013-07-29 00:32:00,
2013-07-28 19:43:00,79.0,49.0,-100.00,ENE,66,1.0,7.0,35,0.00,,,0.00,500.000000,,2013-07-29 00:43:00,
2013-07-28 20:13:00,76.0,51.0,-100.00,ENE,63,2.0,5.0,41,0.00,,,0.00,285.000000,,2013-07-29 01:13:00,
2013-07-28 20:27:00,76.0,51.0,-100.00,ENE,63,2.0,5.0,41,0.00,,,0.00,285.000000,,2013-07-29 01:27:00,
2013-07-28 20:34:00,76.0,51.0,-100.00,ENE,63,2.0,5.0,41,0.00,,,0.00,285.000000,,2013-07-29 01:34:00,
2013-07-28 21:14:00,66.0,52.0,-100.00,NE,46,2.0,4.0,61,0.00,,,0.00,71.000000,,2013-07-29 02:14:00,
2013-07-28 21:24:00,66.0,52.0,-100.00,NE,46,2.0,4.0,61,0.00,,,0.00,71.000000,,2013-07-29 02:24:00,
2013-07-28 21:36:00,66.0,52.0,-100.00,NE,46,2.0,4.0,61,0.00,,,0.00,71.000000,,2013-07-29 02:36:00,
2013-07-28 21:45:00,66.0,52.0,-100.00,NE,46,2.0,4.0,61,0.00,,,0.00,71.000000,,2013-07-29 02:45:00,
2013-07-28 22:36:00,60.0,49.0,-100.00,NE,42,1.0,5.0,68,0.00,,,0.00,0.000000,,2013-07-29 03:36:00,
2013-07-28 23:12:00,59.0,50.0,-100.00,NE,51,0.0,3.0,71,0.00,,,0.00,0.000000,,2013-07-29 04:12:00,
2013-07-28 23:22:00,59.0,50.0,-100.00,NE,51,0.0,3.0,71,0.00,,,0.00,0.000000,,2013-07-29 04:22:00,
2013-07-28 23:32:00,59.0,50.0,-100.00,NE,51,0.0,3.0,71,0.00,,,0.00,0.000000,,2013-07-29 04:32:00,
2013-07-28 23:43:00,59.0,50.0,-100.00,NE,51,0.0,3.0,71,0.00,,,0.00,0.000000,,2013-07-29 04:43:00,